Time,TemperatureF,DewpointF,PressureIn,WindDirection,WindDirectionDegrees,WindSpeedMPH,WindSpeedGustMPH,Humidity,HourlyPrecipIn,Conditions,Clouds,dailyrainin,SolarRadiationWatts/m^2,SoftwareType,DateUTC
2013-02-27 00:01:00,45.0,43.0,-100.00,SSW,197,5.0,9.0,94,0.00,,,0.01,0.000000,,2013-02-27 08:01:00,
2013-02-27 00:11:00,45.0,43.0,-100.00,SSW,197,5.0,9.0,94,0.00,,,0.01,0.000000,,2013-02-27 08:11:00,
2013-02-27 00:32:00,43.0,43.0,-100.00,NE,46,2.0,6.0,100,0.00,,,0.01,0.000000,,2013-02-27 08:32:00,
2013-02-27 00:42:00,43.0,43.0,-100.00,NE,46,2.0,6.0,100,0.00,,,0.01,0.000000,,2013-02-27 08:42:00,
2013-02-27 00:52:00,43.0,43.0,-100.00,NE,46,2.0,6.0,100,0.00,,,0.01,0.000000,,2013-02-27 08:52:00,
2013-02-27 01:01:00,43.0,43.0,-100.00,NE,46,2.0,6.0,100,0.00,,,0.01,0.000000,,2013-02-27 09:01:00,
2013-02-27 01:11:00,43.0,43.0,-100.00,NE,46,2.0,6.0,100,0.00,,,0.01,0.000000,,2013-02-27 09:11:00,
2013-02-27 01:12:00,42.0,42.0,-100.00,ENE,60,1.0,4.0,100,0.00,,,0.01,0.000000,,2013-02-27 09:12:00,
2013-02-27 01:32:00,42.0,42.0,-100.00,ENE,60,1.0,4.0,100,0.00,,,0.01,0.000000,,2013-02-27 09:32:00,
2013-02-27 01:42:00,42.0,42.0,-100.00,ENE,60,1.0,4.0,100,0.00,,,0.01,0.000000,,2013-02-27 09:42:00,
2013-02-27 01:52:00,42.0,42.0,-100.00,ENE,60,1.0,4.0,100,0.00,,,0.01,0.000000,,2013-02-27 09:52:00,
2013-02-27 02:01:00,42.0,42.0,-100.00,ENE,60,1.0,4.0,100,0.00,,,0.01,0.000000,,2013-02-27 10:01:00,
2013-02-27 02:32:00,42.0,42.0,-100.00,NE,42,2.0,5.0,100,0.00,,,0.01,0.000000,,2013-02-27 10:32:00,
2013-02-27 02:42:00,42.0,42.0,-100.00,NE,42,2.0,5.0,100,0.00,,,0.01,0.000000,,2013-02-27 10:42:00,
2013-02-27 02:52:00,42.0,42.0,-100.00,NE,42,2.0,5.0,100,0.00,,,0.01,0.000000,,2013-02-27 10:52:00,
2013-02-27 03:01:00,42.0,42.0,-100.00,NE,42,2.0,5.0,100,0.00,,,0.01,0.000000,,2013-02-27 11:01:00,
2013-02-27 03:11:00,42.0,42.0,-100.00,NE,42,2.0,5.0,100,0.00,,,0.01,0.000000,,2013-02-27 11:11:00,
2013-02-27 03:12:00,43.0,43.0,-100.00,NE,54,1.0,4.0,100,0.00,,,0.01,0.000000,,2013-02-27 11:12:00,
2013-02-27 03:32:00,43.0,43.0,-100.00,NE,54,1.0,4.0,100,0.00,,,0.01,0.000000,,2013-02-27 11:32:00,
2013-02-27 03:42:00,43.0,43.0,-100.00,NE,54,1.0,4.0,100,0.00,,,0.01,0.000000,,2013-02-27 11:42:00,
2013-02-27 03:52:00,43.0,43.0,-100.00,NE,54,1.0,4.0,100,0.00,,,0.01,0.000000,,2013-02-27 11:52:00,
2013-02-27 04:01:00,43.0,43.0,-100.00,NE,54,1.0,4.0,100,0.00,,,0.01,0.000000,,2013-02-27 12:01:00,
2013-02-27 04:33:00,43.0,43.0,-100.00,ENE,58,1.0,4.0,100,0.00,,,0.01,0.000000,,2013-02-27 12:33:00,
2013-02-27 04:42:00,43.0,43.0,-100.00,ENE,58,1.0,4.0,100,0.00,,,0.01,0.000000,,2013-02-27 12:42:00,
2013-02-27 04:52:00,43.0,43.0,-100.00,ENE,58,1.0,4.0,100,0.00,,,0.01,0.000000,,2013-02-27 12:52:00,
2013-02-27 05:02:00,43.0,43.0,-100.00,ENE,58,1.0,4.0,100,0.00,,,0.01,0.000000,,2013-02-27 13:02:00,
2013-02-27 05:11:00,43.0,43.0,-100.00,ENE,58,1.0,4.0,100,0.00,,,0.01,0.000000,,2013-02-27 13:11:00,
2013-02-27 05:32:00,43.0,43.0,-100.00,ENE,74,2.0,4.0,100,0.00,,,0.01,0.000000,,2013-02-27 13:32:00,
2013-02-27 05:42:00,43.0,43.0,-100.00,ENE,74,2.0,4.0,100,0.00,,,0.01,0.000000,,2013-02-27 13:42:00,
2013-02-27 05:52:00,43.0,43.0,-100.00,ENE,74,2.0,4.0,100,0.00,,,0.01,0.000000,,2013-02-27 13:52:00,
2013-02-27 06:02:00,43.0,43.0,-100.00,ENE,74,2.0,4.0,100,0.00,,,0.01,0.000000,,2013-02-27 14:02:00,
2013-02-27 06:11:00,43.0,43.0,-100.00,ENE,74,2.0,4.0,100,0.00,,,0.01,0.000000,,2013-02-27 14:11:00,
2013-02-27 06:12:00,44.0,44.0,-100.00,NE,51,2.0,6.0,100,0.00,,,0.01,0.000000,,2013-02-27 14:12:00,
2013-02-27 06:42:00,44.0,44.0,-100.00,NE,51,2.0,6.0,100,0.00,,,0.01,0.000000,,2013-02-27 14:42:00,
2013-02-27 06:52:00,44.0,44.0,-100.00,NE,51,2.0,6.0,100,0.00,,,0.01,0.000000,,2013-02-27 14:52:00,
2013-02-27 07:02:00,44.0,44.0,-100.00,NE,51,2.0,6.0,100,0.00,,,0.01,0.000000,,2013-02-27 15:02:00,
2013-02-27 07:32:00,43.0,43.0,-100.00,ENE,75,2.0,5.0,100,0.00,,,0.00,0.000000,,2013-02-27 15:32:00,
2013-02-27 07:42:00,43.0,43.0,-100.00,ENE,75,2.0,5.0,100,0.00,,,0.00,0.000000,,2013-02-27 15:42:00,
2013-02-27 07:52:00,43.0,43.0,-100.00,ENE,75,2.0,5.0,100,0.00,,,0.00,0.000000,,2013-02-27 15:52:00,
2013-02-27 08:01:00,43.0,43.0,-100.00,ENE,75,2.0,5.0,100,0.00,,,0.00,0.000000,,2013-02-27 16:01:00,
2013-02-27 08:11:00,43.0,43.0,-100.00,ENE,75,2.0,5.0,100,0.00,,,0.00,0.000000,,2013-02-27 16:11:00,
2013-02-27 08:32:00,45.0,45.0,-100.00,East,93,1.0,4.0,100,0.00,,,0.00,31.000000,,2013-02-27 16:32:00,
2013-02-27 08:42:00,45.0,45.0,-100.00,East,93,1.0,4.0,100,0.00,,,0.00,31.000000,,2013-02-27 16:42:00,
2013-02-27 08:52:00,45.0,45.0,-100.00,East,93,1.0,4.0,100,0.00,,,0.00,31.000000,,2013-02-27 16:52:00,
2013-02-27 09:01:00,45.0,45.0,-100.00,East,93,1.0,4.0,100,0.00,,,0.00,31.000000,,2013-02-27 17:01:00,
2013-02-27 09:11:00,45.0,45.0,-100.00,East,93,1.0,4.0,100,0.00,,,0.00,31.000000,,2013-02-27 17:11:00,
2013-02-27 09:32:00,47.0,47.0,-100.00,East,81,2.0,5.0,100,0.00,,,0.00,123.000000,,2013-02-27 17:32:00,
2013-02-27 09:42:00,47.0,47.0,-100.00,East,81,2.0,5.0,100,0.00,,,0.00,123.000000,,2013-02-27 17:42:00,
2013-02-27 09:52:00,47.0,47.0,-100.00,East,81,2.0,5.0,100,0.00,,,0.00,123.000000,,2013-02-27 17:52:00,
2013-02-27 10:01:00,47.0,47.0,-100.00,East,81,2.0,5.0,100,0.00,,,0.00,123.000000,,2013-02-27 18:01:00,
2013-02-27 10:11:00,47.0,47.0,-100.00,East,81,2.0,5.0,100,0.00,,,0.00,123.000000,,2013-02-27 18:11:00,
2013-02-27 10:32:00,49.0,49.0,-100.00,East,95,3.0,5.0,100,0.01,,,0.01,147.000000,,2013-02-27 18:32:00,
2013-02-27 10:42:00,49.0,49.0,-100.00,East,95,3.0,5.0,100,0.01,,,0.01,147.000000,,2013-02-27 18:42:00,
2013-02-27 10:52:00,49.0,49.0,-100.00,East,95,3.0,5.0,100,0.01,,,0.01,147.000000,,2013-02-27 18:52:00,
2013-02-27 11:01:00,49.0,49.0,-100.00,East,95,3.0,5.0,100,0.01,,,0.01,147.000000,,2013-02-27 19:01:00,
2013-02-27 11:11:00,49.0,49.0,-100.00,East,95,3.0,5.0,100,0.01,,,0.01,147.000000,,2013-02-27 19:11:00,
2013-02-27 11:32:00,51.0,51.0,-100.00,NNE,27,1.0,6.0,100,0.00,,,0.01,230.000000,,2013-02-27 19:32:00,
2013-02-27 11:42:00,51.0,51.0,-100.00,NNE,27,1.0,6.0,100,0.00,,,0.01,230.000000,,2013-02-27 19:42:00,
2013-02-27 11:52:00,51.0,51.0,-100.00,NNE,27,1.0,6.0,100,0.00,,,0.01,230.000000,,2013-02-27 19:52:00,
2013-02-27 12:01:00,51.0,51.0,-100.00,NNE,27,1.0,6.0,100,0.00,,,0.01,230.000000,,2013-02-27 20:01:00,
2013-02-27 12:11:00,51.0,51.0,-100.00,NNE,27,1.0,6.0,100,0.00,,,0.01,230.000000,,2013-02-27 20:11:00,
2013-02-27 12:32:00,52.0,52.0,-100.00,SE,130,2.0,4.0,100,0.00,,,-99.99,251.000000,,2013-02-27 20:32:00,
2013-02-27 12:42:00,52.0,52.0,-100.00,SE,130,2.0,4.0,100,0.00,,,-99.99,251.000000,,2013-02-27 20:42:00,
2013-02-27 12:52:00,52.0,52.0,-100.00,SE,130,2.0,4.0,100,0.00,,,-99.99,251.000000,,2013-02-27 20:52:00,
2013-02-27 13:01:00,52.0,52.0,-100.00,SE,130,2.0,4.0,100,0.00,,,-99.99,251.000000,,2013-02-27 21:01:00,
2013-02-27 13:11:00,52.0,52.0,-100.00,SE,130,2.0,4.0,100,0.00,,,-99.99,251.000000,,2013-02-27 21:11:00,
2013-02-27 13:42:00,51.0,51.0,-100.00,NNE,13,3.0,5.0,100,0.00,,,-99.99,181.000000,,2013-02-27 21:42:00,
2013-02-27 13:52:00,51.0,51.0,-100.00,NNE,13,3.0,5.0,100,0.00,,,-99.99,181.000000,,2013-02-27 21:52:00,
2013-02-27 14:01:00,51.0,51.0,-100.00,NNE,13,3.0,5.0,100,0.00,,,-99.99,181.000000,,2013-02-27 22:01:00,
2013-02-27 14:11:00,51.0,51.0,-100.00,NNE,13,3.0,5.0,100,0.00,,,-99.99,181.000000,,2013-02-27 22:11:00,
2013-02-27 14:42:00,51.0,51.0,-100.00,NW,322,2.0,5.0,100,0.00,,,0.01,177.000000,,2013-02-27 22:42:00,
2013-02-27 14:52:00,51.0,51.0,-100.00,NW,322,2.0,5.0,100,0.00,,,0.01,177.000000,,2013-02-27 22:52:00,
2013-02-27 15:01:00,51.0,51.0,-100.00,NW,322,2.0,5.0,100,0.00,,,0.01,177.000000,,2013-02-27 23:01:00,
2013-02-27 15:11:00,51.0,51.0,-100.00,NW,322,2.0,5.0,100,0.00,,,0.01,177.000000,,2013-02-27 23:11:00,
2013-02-27 15:32:00,51.0,51.0,-100.00,SSW,207,3.0,7.0,100,0.00,,,0.01,138.000000,,2013-02-27 23:32:00,
2013-02-27 15:42:00,51.0,51.0,-100.00,SSW,207,3.0,7.0,100,0.00,,,0.01,138.000000,,2013-02-27 23:42:00,
2013-02-27 15:53:00,51.0,51.0,-100.00,SSW,207,3.0,7.0,100,0.00,,,0.01,138.000000,,2013-02-27 23:53:00,
2013-02-27 16:01:00,51.0,51.0,-100.00,SSW,207,3.0,7.0,100,0.00,,,0.01,138.000000,,2013-02-28 00:01:00,
2013-02-27 16:11:00,51.0,51.0,-100.00,SSW,207,3.0,7.0,100,0.00,,,0.01,138.000000,,2013-02-28 00:11:00,
2013-02-27 16:32:00,51.0,51.0,-100.00,SSW,210,4.0,6.0,100,0.00,,,0.01,62.000000,,2013-02-28 00:32:00,
2013-02-27 16:42:00,51.0,51.0,-100.00,SSW,210,4.0,6.0,100,0.00,,,0.01,62.000000,,2013-02-28 00:42:00,
2013-02-27 16:52:00,51.0,51.0,-100.00,SSW,210,4.0,6.0,100,0.00,,,0.01,62.000000,,2013-02-28 00:52:00,
2013-02-27 17:01:00,51.0,51.0,-100.00,SSW,210,4.0,6.0,100,0.00,,,0.01,62.000000,,2013-02-28 01:01:00,
2013-02-27 17:11:00,51.0,51.0,-100.00,SSW,210,4.0,6.0,100,0.00,,,0.01,62.000000,,2013-02-28 01:11:00,
2013-02-27 17:32:00,50.0,50.0,-100.00,SW,227,2.0,7.0,100,0.00,,,0.01,46.000000,,2013-02-28 01:32:00,
2013-02-27 17:42:00,50.0,50.0,-100.00,SW,227,2.0,7.0,100,0.00,,,0.01,46.000000,,2013-02-28 01:42:00,
2013-02-27 17:52:00,50.0,50.0,-100.00,SW,227,2.0,7.0,100,0.00,,,0.01,46.000000,,2013-02-28 01:52:00,
2013-02-27 18:01:00,50.0,50.0,-100.00,SW,227,2.0,7.0,100,0.00,,,0.01,46.000000,,2013-02-28 02:01:00,
2013-02-27 18:11:00,50.0,50.0,-100.00,SW,227,2.0,7.0,100,0.00,,,0.01,46.000000,,2013-02-28 02:11:00,
2013-02-27 19:01:00,49.0,49.0,-100.00,ENE,65,1.0,2.0,100,0.00,,,0.01,6.000000,,2013-02-28 03:01:00,
2013-02-27 19:11:00,49.0,49.0,-100.00,ENE,65,1.0,2.0,100,0.00,,,0.01,6.000000,,2013-02-28 03:11:00,
2013-02-27 19:32:00,49.0,49.0,-100.00,SE,137,1.0,4.0,100,0.00,,,0.01,0.000000,,2013-02-28 03:32:00,
2013-02-27 19:42:00,49.0,49.0,-100.00,SE,137,1.0,4.0,100,0.00,,,0.01,0.000000,,2013-02-28 03:42:00,
2013-02-27 19:52:00,49.0,49.0,-100.00,SE,137,1.0,4.0,100,0.00,,,0.01,0.000000,,2013-02-28 03:52:00,
2013-02-27 20:01:00,49.0,49.0,-100.00,SE,137,1.0,4.0,100,0.00,,,0.01,0.000000,,2013-02-28 04:01:00,
2013-02-27 20:11:00,49.0,49.0,-100.00,SE,137,1.0,4.0,100,0.00,,,0.01,0.000000,,2013-02-28 04:11:00,
2013-02-27 20:32:00,48.0,48.0,-100.00,WSW,245,1.0,2.0,100,0.00,,,0.01,0.000000,,2013-02-28 04:32:00,
2013-02-27 20:42:00,48.0,48.0,-100.00,WSW,245,1.0,2.0,100,0.00,,,0.01,0.000000,,2013-02-28 04:42:00,
2013-02-27 20:52:00,48.0,48.0,-100.00,WSW,245,1.0,2.0,100,0.00,,,0.01,0.000000,,2013-02-28 04:52:00,
2013-02-27 21:01:00,48.0,48.0,-100.00,WSW,245,1.0,2.0,100,0.00,,,0.01,0.000000,,2013-02-28 05:01:00,
2013-02-27 21:11:00,48.0,48.0,-100.00,WSW,245,1.0,2.0,100,0.00,,,0.01,0.000000,,2013-02-28 05:11:00,
2013-02-27 21:32:00,48.0,48.0,-100.00,SE,127,1.0,3.0,100,0.01,,,0.02,0.000000,,2013-02-28 05:32:00,
2013-02-27 21:42:00,48.0,48.0,-100.00,SE,127,1.0,3.0,100,0.01,,,0.02,0.000000,,2013-02-28 05:42:00,
2013-02-27 21:52:00,48.0,48.0,-100.00,SE,127,1.0,3.0,100,0.01,,,0.02,0.000000,,2013-02-28 05:52:00,
2013-02-27 22:01:00,48.0,48.0,-100.00,SE,127,1.0,3.0,100,0.01,,,0.02,0.000000,,2013-02-28 06:01:00,
2013-02-27 22:11:00,48.0,48.0,-100.00,SE,127,1.0,3.0,100,0.01,,,0.02,0.000000,,2013-02-28 06:11:00,
2013-02-27 22:32:00,48.0,48.0,-100.00,ENE,75,3.0,6.0,100,0.01,,,0.03,0.000000,,2013-02-28 06:32:00,
2013-02-27 22:42:00,48.0,48.0,-100.00,ENE,75,3.0,6.0,100,0.01,,,0.03,0.000000,,2013-02-28 06:42:00,
2013-02-27 22:52:00,48.0,48.0,-100.00,ENE,75,3.0,6.0,100,0.01,,,0.03,0.000000,,2013-02-28 06:52:00,
2013-02-27 23:01:00,48.0,48.0,-100.00,ENE,75,3.0,6.0,100,0.01,,,0.03,0.000000,,2013-02-28 07:01:00,
2013-02-27 23:11:00,48.0,48.0,-100.00,ENE,75,3.0,6.0,100,0.01,,,0.03,0.000000,,2013-02-28 07:11:00,
2013-02-27 23:32:00,49.0,49.0,-100.00,ENE,69,2.0,5.0,100,0.00,,,0.03,0.000000,,2013-02-28 07:32:00,
2013-02-27 23:42:00,49.0,49.0,-100.00,ENE,69,2.0,5.0,100,0.00,,,0.03,0.000000,,2013-02-28 07:42:00,
2013-02-27 23:52:00,49.0,49.0,-100.00,ENE,69,2.0,5.0,100,0.00,,,0.03,0.000000,,2013-02-28 07:52:00,